Location: Elstree
(51.6403°N, 0.2969°W)
Time: 12:51:10
(UTC+00:00)

Cosmos 2278 Rocket - Pass Details

Date: 03 March 2021
Orbit: 841 x 845 km, 71.0° (Epoch: 13 April)

Event Time Altitude Azimuth Distance (km) Brightness Sun altitude
Rises 22:06:39 0° 320° (NW) 3,415 6.3 -37.8°
Reaches altitude 10° 22:09:41 10° 305° (NW) 2,474 5.3 -38.2°
Enters shadow 22:12:37 19° 275° (W) 1,902 4.3 -38.4°
